Orbital Elements at Epoch 2459000.5 (2020-May-31.0) TDB
Reference: JPL 22 (heliocentric ecliptic J2000)
Element | Value | Uncertainty (1-sigma) | Units |
e | .1206684132527545 | 3.1145e-08 | |
a | 2.342084167336742 | 8.3519e-09 | au |
q | 2.059468587159819 | 7.1915e-08 | au |
i | 3.938721719075835 | 3.8654e-06 | deg |
node | 147.6891266712039 | 5.6096e-05 | deg |
peri | 103.7613987965825 | 5.8591e-05 | deg |
M | 83.96940486316301 | 1.7443e-05 | deg |
tp | 2458695.133951988730 (2019-Jul-30.63395199) | 6.3188e-05 | TDB |
period | 1309.188477198364 3.58 | 7.0029e-06 1.917e-08 | d yr |
n | .2749795054493548 | 1.4709e-09 | deg/d |
Q | 2.624699747513665 | 9.3597e-09 | au |
|
| | Orbit Determination Parameters
Additional Information
|